Regional Weather Roundup
Issued by NWS

Home | Current Version | Previous Version | Graphics & Text | Print | Product List | Glossary On
Versions: 1 2 3 4 5 6 7 8 9 10 11 12 13 14 15 16 17 18 19 20 21 22 23 24 25 26 27 28 29 30 31 32 33 34 35 36 37 38 39 40 41 42 43 44 45 46 47 48 49 50
000
ASUS43 KFSD 220602
RWRSD

WEATHER ROUNDUP FOR SOUTH DAKOTA
NATIONAL WEATHER SERVICE SIOUX FALLS SD
100 AM CDT THU JUN 22 2017

NOTE: "FAIR" INDICATES FEW OR NO CLOUDS BELOW 12,000 FEET WITH NO
SIGNIFICANT WEATHER AND/OR OBSTRUCTIONS TO VISIBILITY.


SDZ001>005-009-010-012>017-220700-
NORTHWEST AND NORTH CENTRAL SOUTH DAKOTA

CITY           SKY/WX    TMP DP  RH WIND       PRES   REMARKS
BUFFALO          N/A     63  52  67 E7        29.71F
FAITH            N/A     62  51  67 VRB6      29.78R
$$

SDZ012>016-024>037-041>051-057-063-072>074-220700-
SOUTHWEST AND SOUTH CENTRAL SOUTH DAKOTA

CITY           SKY/WX    TMP DP  RH WIND       PRES   REMARKS
RAPID CTY ARPT CLEAR     63  47  55 N10       29.79R
PIERRE         CLEAR     70  50  49 NE15G24   29.69S
CUSTER         CLOUDY    63  41  44 NE7       29.91F
ELLSWORTH AFB  CLEAR     71  47  43 NE9       29.78R
PHILIP         CLEAR     68  53  58 E12       29.72S
PINE RIDGE     PTCLDY    67  59  75 NE8       29.75S
SPEARFISH      MOCLDY    63  52  67 CALM      29.85R
WINNER         FAIR      75  63  66 NE9       29.69R
$$

SDZ004>011-016>023-039-040-220700-
NORTHEAST SOUTH DAKOTA

CITY           SKY/WX    TMP DP  RH WIND       PRES   REMARKS
ABERDEEN       LGT RAIN  68  52  56 NE7       29.74R
WATERTOWN      CLEAR     68  61  78 N10       29.71F
BROOKINGS      CLEAR     71  66  84 CALM      29.69F
SISSETON         N/A     67  57  70 NW10      29.71S
$$

SDZ017-020-022-023-036>040-048>070-220700-
SOUTHEAST SOUTH DAKOTA

CITY           SKY/WX    TMP DP  RH WIND       PRES   REMARKS
SIOUX FALLS    CLEAR     72  70  93 NE3       29.67F
HURON          CLEAR     73  62  68 NE16      29.67S
CHAMBERLAIN    CLEAR     75  63  66 NE15G23   29.68S
MITCHELL       CLEAR     71  68  90 E5        29.64F
YANKTON        PTCLDY    74  70  87 NW7       29.65R
$$

ABBREVIATIONS USED IN REMARKS
   TC - TEMPERATURE IN CELSIUS
  WCI - WIND CHILL INDEX
   HX - HEAT INDEX
  VSB - VISIBILITY





USA.gov is the U.S. government's official web portal to all federal, state and local government web resources and services.